Probability
3 3 3 3 3 2 2 3 3 1 0 0 0 0 0 0 1 2 2 1 0 0 0 0 0 0 1 2 2 2 3 4 4 2 1 1 2 4
3 3 3 3 3 1 1 2 3 2 0 0 0 0 0 0 0 1 1 0 0 0 0 0 0 0 0 1 1 1 2 3 2 1 0 0 1 2
3 3 3 3 3 1 1 2 2 1 0 0 0 0 0 0 0 0 1 0 0 0 0 0 0 0 0 0 0 0 1 1 1 0 0 0 0 1
3 3 3 3 3 3 2 2 1 0 0 0 0 0 0 0 0 0 1 1 0 0 0 0 0 0 0 0 0 0 0 0 0 0 0 0 0 0
3 3 3 3 3 3 3 2 1 0 0 0 0 0 0 0 0 0 1 1 1 1 0 0 0 0 0 0 0 0 0 0 0 0 0 0 0 0
2 2 2 2 2 2 2 2 1 0 0 0 0 0 0 0 0 0 1 2 3 2 1 0 0 0 0 0 0 0 0 0 0 0 0 0 0 0
1 1 1 1 1 1 1 1 0 0 0 0 0 0 0 0 0 0 1 2 3 3 2 0 0 1 1 0 0 0 0 0 0 0 0 0 0 0
0 0 0 0 0 0 0 0 0 0 1 1 1 1 1 1 1 0 0 1 3 3 2 1 1 1 1 0 0 0 0 0 0 0 0 0 0 0
0 0 0 0 0 0 0 0 0 0 1 1 2 2 2 2 2 1 1 1 2 2 2 2 1 1 1 0 0 0 0 0 0 0 0 0 0 0
0 0 0 0 0 0 0 0 0 0 0 1 1 2 2 2 2 2 2 2 1 1 2 2 1 1 0 0 0 0 0 0 0 0 0 0 0 0
0 0 0 0 0 0 0 0 0 0 0 0 0 1 1 1 1 2 2 2 1 2 3 3 3 2 1 0 0 0 0 0 0 0 0 0 0 0
0 0 0 0 0 0 0 0 0 0 0 0 0 0 0 0 0 1 1 1 1 2 3 4 4 4 2 1 0 0 0 0 0 0 0 0 0 0
0 0 0 0 0 0 0 0 0 0 0 0 0 0 0 0 0 0 0 0 0 1 3 4 4 4 3 2 1 0 0 0 0 0 0 0 0 0
0 0 0 0 0 0 0 0 0 0 0 0 0 0 0 0 0 0 0 0 0 1 2 3 3 3 3 2 2 1 1 0 0 0 0 0 0 0
0 0 0 0 0 0 0 0 0 0 0 0 0 0 0 0 0 0 0 0 0 0 1 2 3 3 3 2 1 1 1 1 1 1 1 0 0 0
0 0 0 0 0 0 0 0 0 0 0 0 0 0 0 0 0 0 0 0 0 0 1 2 3 3 3 2 1 1 2 2 1 1 1 0 0 0
0 0 0 0 0 0 0 0 0 0 0 0 0 0 0 0 0 0 0 0 0 0 1 2 3 2 2 2 2 2 2 1 1 1 1 0 0 0
0 0 0 0 0 0 0 0 0 0 0 0 0 0 0 0 0 0 0 0 0 0 1 1 1 1 1 1 1 2 2 1 0 1 1 0 0 0
0 0 0 0 0 0 0 0 0 0 0 0 0 0 0 0 0 0 0 0 0 0 0 0 1 1 0 0 0 1 1 1 0 0 0 0 0 0
0 0 0 0 0 0 0 0 0 0 0 0 0 0 0 0 0 0 0 0 0 0 0 0 0 0 0 0 0 0 0 0 0 0 0 0 0 0
0 0 0 0 0 0 0 0 0 0 0 0 0 0 0 0 0 0 0 0 0 0 0 0 0 0 0 0 0 0 0 0 0 0 0 0 0 0
0 0 0 0 0 0 0 0 0 0 0 0 0 0 0 0 0 0 0 0 0 0 0 0 0 0 0 0 0 0 0 0 0 0 0 0 0 0
0 0 0 0 0 0 0 0 0 0 0 0 0 0 0 0 0 0 0 0 0 0 0 0 0 0 0 0 0 0 0 0 0 0 0 0 0 0
Wind_Speed
2 2 2 2 2 2 3 3 3 3 3 2 2 2 2 2 3 3 3 5 6 7 7 7 8 9 9 9 10 10 10 10 11 11 11 12 12 12
2 2 2 2 2 2 2 2 3 3 3 2 2 2 2 2 3 3 3 5 6 7 7 7 7 8 9 9 9 9 10 10 11 11 11 12 12 12
2 2 3 3 2 2 2 2 2 3 3 3 2 2 2 2 2 2 3 3 3 6 7 7 8 8 8 9 9 9 10 10 10 11 11 12 11 12
3 2 3 3 3 3 2 3 3 3 3 4 2 2 3 3 2 2 2 2 3 5 7 7 8 8 8 8 8 9 9 10 10 11 11 11 11 11
3 3 4 3 3 3 3 3 3 3 3 3 3 2 2 2 2 2 2 2 3 4 6 7 8 8 8 8 8 9 9 9 9 10 10 10 11 11
3 3 3 4 4 4 3 3 3 3 3 3 3 3 2 2 2 2 2 2 3 3 3 4 6 7 8 8 8 8 8 9 9 9 9 10 10 10
3 3 3 4 4 4 3 3 3 3 3 3 3 3 3 2 3 2 3 3 3 2 2 3 3 4 5 6 8 8 9 9 9 10 10 9 9 10
3 3 3 3 3 3 3 3 4 4 4 3 3 4 4 4 3 3 3 2 3 2 2 2 2 3 3 4 7 9 9 9 9 10 10 10 10 10
3 3 3 3 3 2 3 3 3 5 6 5 5 5 5 4 4 4 4 4 4 3 1 3 2 3 3 4 6 8 8 9 9 10 10 11 10 10
3 2 3 3 3 2 2 2 3 3 4 4 5 5 5 4 4 5 4 3 3 3 2 3 2 3 3 3 5 7 8 8 8 9 10 10 9 9
3 3 3 3 4 3 1 2 3 3 3 3 4 5 5 5 4 3 3 3 3 3 2 2 2 2 3 3 3 6 7 7 8 8 8 8 9 8
3 3 3 3 4 2 1 1 2 3 2 2 2 2 3 3 4 4 4 3 3 3 2 3 2 2 2 2 2 2 3 5 6 7 7 7 7 5
2 3 2 4 3 3 1 2 4 3 2 1 2 2 2 2 2 3 3 3 3 3 2 3 2 2 2 2 2 2 2 2 3 4 5 7 7 6
2 2 2 3 3 3 2 2 3 2 1 1 1 2 2 3 3 2 3 3 3 4 3 3 3 3 3 3 3 2 2 2 3 3 3 4 6 7
2 3 3 3 2 2 2 2 1 0 0 1 2 2 3 3 2 2 2 2 2 2 3 4 3 3 3 3 3 2 2 2 2 2 2 3 3 4
2 2 3 3 2 2 3 2 1 0 1 2 2 2 2 2 2 2 1 1 1 2 2 2 3 3 3 4 3 3 3 2 2 2 2 2 2 3
0 1 2 2 2 2 2 2 1 1 1 2 2 2 2 2 2 2 1 1 1 2 2 1 1 1 1 2 3 3 2 2 2 2 2 2 2 3
2 1 1 2 2 2 2 2 2 2 2 2 2 2 2 2 2 2 1 1 2 2 2 1 1 0 1 1 2 3 2 2 2 2 2 3 3 3
1 1 2 2 2 2 2 2 2 2 2 2 2 2 2 2 2 2 2 2 2 2 2 1 1 1 1 2 1 1 2 2 1 1 2 3 4 3
1 2 2 2 2 2 2 2 3 2 2 2 2 2 2 2 2 2 2 2 2 2 2 1 1 2 2 2 2 2 2 2 2 2 2 2 2 3
2 2 3 3 3 2 3 3 3 2 2 2 2 2 2 2 2 2 2 2 2 2 3 3 2 2 2 1 1 2 2 1 2 2 2 2 2 2
3 3 3 3 3 3 3 3 3 3 3 2 2 2 2 2 2 3 2 2 2 2 3 3 2 1 1 1 2 2 3 2 1 2 2 2 2 2
3 3 3 3 3 3 3 3 4 3 3 3 2 2 2 2 2 2 2 2 2 2 2 2 1 1 1 1 2 2 3 3 2 1 2 1 3 4
Wind_Direction
235 235 233 242 228 224 217 211 208 239 265 260 253 251 237 236 249 245 235 231 224 217 214 218 221 220 222 221 219 218 218 218 220 221 223 224 225 227
235 240 250 246 234 220 214 215 210 213 242 253 247 270 266 260 248 238 241 239 232 223 219 223 225 223 220 222 221 219 219 218 218 221 224 226 226 226
263 246 254 247 238 226 212 210 210 205 230 261 259 268 258 263 279 260 247 235 225 223 222 224 229 228 223 223 224 220 221 221 220 221 224 224 225 225
269 259 260 249 243 234 219 216 211 208 217 248 263 256 249 248 261 268 267 249 232 224 221 222 226 226 222 222 223 219 217 219 220 220 220 219 221 224
260 254 254 243 248 241 225 223 220 213 210 228 253 251 255 244 249 262 269 268 253 231 220 221 224 222 220 219 219 217 215 216 218 221 221 219 221 223
269 258 255 244 244 240 231 228 219 209 206 224 248 258 258 250 233 251 270 265 264 257 241 235 228 223 223 221 217 215 214 214 216 217 216 215 217 220
294 282 271 268 258 246 240 228 213 212 211 221 240 249 251 242 241 239 253 272 280 257 246 244 233 232 230 226 222 220 218 217 216 215 215 216 216 217
296 303 302 294 285 271 261 239 214 211 219 222 233 236 244 242 237 233 243 258 272 240 219 258 236 241 242 234 224 218 217 217 217 216 215 215 216 217
292 301 307 310 296 275 273 272 258 245 226 221 231 240 244 239 230 240 238 241 256 251 223 267 255 250 248 242 224 217 216 217 217 217 215 216 217 218
295 294 296 309 311 286 269 268 269 266 247 225 229 242 247 247 230 234 239 245 264 263 219 248 261 259 260 246 225 216 212 212 215 217 216 215 215 218
311 304 289 296 309 306 262 257 274 287 282 245 238 250 254 252 236 220 219 223 263 266 216 223 250 270 275 265 233 212 212 213 215 215 214 212 213 214
316 312 303 301 316 321 262 253 275 286 298 306 297 289 272 259 235 219 221 224 246 258 217 207 232 236 266 266 260 231 221 221 218 218 214 210 207 209
305 310 312 320 317 322 277 236 257 270 287 298 307 315 316 291 262 238 228 222 233 249 223 199 220 218 230 266 274 252 239 237 227 226 214 207 203 202
279 293 305 321 320 322 310 296 285 276 266 300 310 304 297 290 286 270 246 241 244 247 241 223 227 223 226 246 259 253 245 234 224 224 217 203 206 209
278 301 312 320 319 333 338 329 320 312 277 279 281 280 279 283 292 293 285 262 273 272 253 238 231 230 229 235 241 246 254 249 225 216 210 204 198 196
300 328 342 355 353 345 347 351 345 305 251 268 281 285 293 299 299 300 291 291 293 303 301 271 239 223 233 236 231 243 241 233 223 220 218 223 216 211
326 10 7 357 350 344 340 333 326 328 302 288 281 286 291 295 298 300 279 279 271 285 312 342 333 245 252 260 238 238 238 244 240 229 216 241 249 233
106 18 333 323 314 311 312 317 320 310 297 284 281 283 287 289 294 301 290 270 269 278 285 297 312 263 235 264 270 250 251 254 256 236 230 242 260 255
99 279 282 284 283 286 288 293 302 304 297 287 286 287 287 288 287 284 282 280 278 280 284 287 271 249 259 284 309 278 249 257 261 265 253 241 255 267
268 270 274 276 271 270 275 282 293 302 300 294 290 292 284 273 274 278 275 273 274 278 285 278 263 253 251 268 277 295 269 243 242 250 261 260 264 272
268 271 273 272 269 264 265 268 278 287 291 286 283 279 273 263 262 267 274 277 277 282 282 280 275 258 248 227 251 286 306 260 234 245 253 254 266 271
277 272 271 269 266 263 265 268 271 278 285 280 279 275 264 254 256 261 262 266 271 274 283 293 300 263 222 230 264 285 301 321 285 258 272 247 240 244
277 276 275 273 267 263 263 266 268 273 274 274 272 272 268 263 262 262 268 269 274 282 289 293 298 286 269 253 267 282 296 303 311 320 315 289 229 240